Temp
-13 -13 -13 -13 -13 -13 -13 -14 -14 -14 -14 -14 -14 -14 -16 -17 -17 -17 -17 -17 -16 -16 -16 -16 -15 -15 -15 -15 -15 -14 -14 -14 -13 -13 -13 -13 -13 -13 -13 -13 -13 -13 -13
-13 -13 -13 -13 -14 -14 -14 -14 -14 -14 -14 -14 -14 -14 -14 -14 -15 -16 -16 -16 -16 -16 -16 -16 -16 -16 -16 -16 -15 -14 -14 -13 -13 -12 -12 -12 -12 -12 -12 -13 -13 -13 -13
-13 -13 -13 -14 -14 -14 -14 -14 -14 -14 -14 -14 -14 -14 -14 -14 -15 -14 -14 -15 -16 -16 -16 -16 -16 -16 -16 -16 -15 -14 -14 -13 -13 -13 -13 -14 -13 -13 -14 -14 -15 -15 -15
-14 -14 -14 -14 -14 -14 -14 -14 -15 -15 -15 -15 -15 -15 -15 -15 -15 -15 -15 -15 -15 -15 -15 -15 -15 -15 -14 -14 -14 -14 -14 -14 -14 -14 -13 -13 -13 -13 -13 -14 -16 -17 -18
-14 -14 -14 -14 -14 -14 -15 -15 -15 -15 -15 -15 -15 -15 -15 -15 -15 -15 -15 -15 -15 -15 -15 -15 -14 -14 -14 -14 -14 -14 -14 -14 -14 -14 -14 -14 -14 -14 -15 -15 -16 -19 -20
-14 -14 -14 -14 -14 -15 -15 -15 -15 -15 -15 -15 -15 -15 -15 -15 -15 -15 -15 -15 -15 -15 -15 -15 -14 -14 -14 -14 -14 -14 -15 -15 -15 -15 -15 -15 -15 -15 -16 -17 -18 -19 -20
-14 -14 -14 -14 -15 -15 -15 -15 -15 -15 -15 -15 -15 -15 -15 -15 -15 -15 -15 -15 -15 -15 -15 -15 -15 -15 -14 -14 -14 -14 -14 -14 -15 -15 -16 -16 -16 -16 -16 -17 -18 -19 -20
-14 -14 -14 -14 -14 -14 -15 -15 -15 -15 -15 -15 -15 -15 -15 -14 -14 -14 -14 -15 -15 -15 -15 -15 -15 -14 -14 -14 -14 -15 -15 -15 -15 -16 -16 -16 -17 -17 -17 -17 -17 -18 -19
-14 -14 -14 -14 -14 -14 -15 -15 -15 -15 -15 -15 -15 -15 -15 -15 -15 -14 -14 -14 -15 -15 -15 -15 -15 -15 -14 -14 -15 -15 -15 -15 -15 -16 -16 -17 -17 -18 -18 -18 -18 -18 -18
-14 -14 -14 -14 -14 -14 -14 -15 -15 -15 -15 -15 -15 -14 -14 -14 -14 -14 -15 -15 -15 -15 -15 -15 -15 -15 -15 -15 -15 -15 -15 -15 -15 -16 -16 -17 -18 -18 -19 -19 -19 -19 -19
-14 -14 -14 -14 -14 -15 -14 -14 -15 -15 -15 -15 -14 -14 -14 -14 -14 -14 -15 -15 -15 -15 -15 -15 -15 -15 -15 -15 -15 -15 -15 -15 -15 -16 -16 -17 -17 -18 -19 -20 -20 -20 -19
-14 -14 -14 -14 -14 -14 -14 -14 -15 -15 -15 -15 -14 -14 -14 -14 -14 -14 -15 -15 -15 -15 -15 -15 -15 -15 -15 -15 -16 -16 -16 -16 -16 -16 -17 -17 -18 -19 -20 -20 -21 -21 -21
-14 -14 -14 -14 -14 -14 -14 -15 -15 -15 -15 -15 -15 -14 -14 -14 -15 -15 -15 -15 -15 -15 -15 -15 -15 -15 -16 -16 -16 -16 -16 -16 -16 -17 -17 -18 -19 -20 -21 -22 -22 -22 -22
-14 -14 -14 -14 -14 -14 -15 -15 -15 -15 -15 -15 -15 -15 -14 -14 -15 -15 -15 -16 -16 -15 -15 -15 -16 -16 -16 -16 -16 -16 -16 -16 -17 -17 -18 -19 -21 -22 -23 -23 -23 -23 -23
-14 -14 -14 -14 -14 -15 -15 -15 -15 -15 -15 -15 -15 -15 -15 -15 -15 -15 -15 -16 -16 -16 -16 -16 -16 -16 -16 -16 -16 -17 -17 -17 -17 -18 -19 -21 -23 -23 -23 -23 -23 -23 -23
-14 -14 -14 -14 -15 -15 -15 -15 -15 -15 -16 -16 -16 -16 -16 -15 -16 -16 -16 -16 -16 -16 -16 -16 -16 -16 -16 -17 -17 -17 -17 -17 -18 -19 -21 -23 -23 -23 -24 -24 -24 -24 -24
-14 -14 -14 -14 -15 -15 -15 -15 -15 -16 -16 -16 -16 -16 -16 -16 -16 -16 -16 -16 -16 -16 -16 -16 -16 -16 -17 -17 -17 -18 -18 -18 -18 -20 -22 -24 -24 -24 -24 -24 -25 -25 -26
-14 -14 -14 -15 -15 -15 -15 -15 -16 -16 -16 -16 -15 -16 -16 -16 -16 -16 -16 -16 -16 -16 -16 -16 -17 -17 -17 -17 -18 -18 -18 -18 -19 -21 -23 -24 -24 -24 -24 -25 -26 -26 -26
-15 -15 -15 -15 -15 -15 -15 -16 -16 -16 -16 -16 -16 -16 -16 -16 -17 -16 -16 -17 -17 -17 -17 -17 -17 -17 -17 -18 -18 -18 -18 -19 -20 -22 -24 -24 -24 -25 -25 -25 -26 -26 -26
-15 -15 -15 -15 -15 -16 -16 -16 -16 -16 -16 -16 -16 -16 -16 -16 -17 -17 -17 -17 -17 -18 -17 -17 -17 -18 -18 -18 -19 -19 -19 -19 -20 -22 -24 -24 -24 -25 -25 -25 -26 -26 -27
-15 -16 -16 -16 -16 -16 -16 -16 -16 -16 -15 -16 -16 -16 -17 -17 -17 -17 -17 -17 -18 -18 -19 -18 -18 -18 -19 -19 -19 -19 -19 -20 -21 -23 -24 -25 -25 -25 -25 -26 -26 -27 -27
-16 -16 -16 -16 -16 -17 -17 -17 -16 -16 -16 -17 -17 -17 -17 -17 -17 -18 -18 -18 -18 -18 -20 -19 -19 -19 -19 -19 -19 -19 -20 -20 -21 -24 -25 -25 -25 -25 -26 -26 -26 -26 -26
-16 -16 -17 -16 -16 -16 -16 -16 -16 -17 -17 -17 -18 -18 -18 -18 -18 -18 -18 -19 -19 -19 -21 -20 -20 -20 -19 -20 -20 -20 -20 -21 -23 -25 -25 -25 -26 -26 -26 -26 -26 -26 -26
-16 -17 -17 -17 -17 -17 -17 -17 -16 -17 -18 -18 -18 -19 -18 -19 -19 -19 -20 -20 -19 -21 -21 -21 -20 -20 -20 -20 -20 -20 -21 -22 -24 -25 -26 -26 -26 -26 -26 -26 -26 -26 -27
-16 -16 -17 -17 -17 -17 -17 -17 -17 -17 -17 -19 -19 -20 -20 -20 -20 -20 -20 -20 -21 -21 -21 -21 -21 -20 -20 -20 -20 -21 -22 -23 -25 -26 -26 -27 -27 -27 -27 -26 -26 -27 -27
-17 -17 -17 -17 -17 -17 -17 -17 -17 -17 -18 -18 -19 -20 -20 -20 -20 -20 -21 -21 -21 -23 -22 -22 -21 -21 -21 -20 -21 -22 -23 -25 -26 -27 -27 -27 -27 -27 -27 -27 -27 -28 -28
Height
5715 5714 5713 5712 5709 5704 5697 5688 5679 5670 5660 5650 5639 5629 5621 5618 5617 5618 5620 5624 5628 5633 5637 5640 5642 5644 5647 5651 5654 5658 5660 5661 5662 5666 5665 5666 5665 5664 5663 5660 5659 5658 5657
5715 5713 5711 5710 5706 5701 5695 5687 5680 5672 5665 5657 5649 5640 5632 5625 5621 5620 5622 5623 5626 5628 5630 5632 5633 5635 5637 5639 5643 5647 5649 5647 5649 5652 5647 5644 5643 5641 5640 5637 5637 5638 5637
5714 5712 5710 5707 5704 5699 5693 5687 5680 5674 5667 5661 5655 5648 5642 5636 5631 5628 5625 5623 5624 5625 5626 5626 5627 5628 5628 5630 5631 5633 5634 5635 5634 5633 5631 5625 5623 5619 5615 5612 5609 5610 5609
5712 5710 5708 5705 5702 5697 5692 5686 5680 5674 5668 5662 5656 5651 5646 5642 5637 5633 5630 5628 5626 5625 5625 5624 5624 5624 5624 5624 5626 5627 5628 5627 5625 5622 5619 5615 5611 5604 5597 5590 5585 5580 5582
5711 5709 5706 5703 5699 5695 5691 5686 5680 5675 5669 5663 5658 5653 5649 5644 5641 5638 5634 5632 5630 5628 5626 5625 5625 5624 5624 5624 5624 5623 5622 5619 5617 5613 5610 5605 5599 5593 5585 5576 5567 5562 5560
5709 5706 5704 5701 5698 5694 5689 5684 5679 5673 5668 5663 5658 5653 5649 5645 5641 5638 5635 5632 5630 5628 5626 5624 5622 5621 5620 5620 5619 5617 5614 5610 5607 5602 5598 5593 5588 5582 5573 5565 5558 5551 5546
5705 5703 5700 5697 5694 5690 5685 5680 5675 5671 5666 5661 5657 5653 5649 5645 5642 5638 5635 5631 5628 5626 5623 5621 5619 5617 5616 5614 5611 5609 5606 5601 5596 5592 5587 5582 5577 5571 5564 5557 5550 5544 5537
5702 5699 5696 5693 5689 5685 5680 5675 5671 5667 5663 5659 5655 5651 5648 5644 5640 5637 5633 5629 5626 5622 5620 5617 5614 5612 5610 5607 5604 5601 5596 5592 5587 5582 5576 5571 5566 5560 5554 5548 5542 5537 5530
5697 5694 5691 5688 5684 5679 5675 5671 5667 5663 5659 5656 5652 5648 5644 5641 5636 5633 5629 5626 5623 5620 5616 5612 5608 5605 5601 5598 5594 5590 5586 5582 5576 5569 5564 5559 5554 5548 5544 5538 5533 5528 5525
5691 5688 5685 5682 5678 5673 5669 5665 5661 5657 5654 5650 5647 5643 5639 5635 5631 5627 5624 5621 5617 5613 5610 5606 5603 5599 5595 5591 5586 5581 5576 5570 5564 5559 5552 5546 5541 5536 5531 5527 5522 5518 5514
5685 5681 5678 5674 5670 5666 5662 5658 5654 5650 5647 5643 5640 5636 5632 5628 5624 5621 5616 5613 5609 5606 5602 5599 5596 5592 5587 5582 5577 5571 5565 5559 5553 5546 5540 5533 5527 5521 5517 5513 5509 5505 5502
5677 5674 5670 5666 5662 5658 5655 5651 5647 5643 5639 5636 5632 5628 5624 5620 5616 5612 5608 5604 5600 5597 5593 5589 5586 5581 5577 5571 5566 5560 5554 5547 5539 5532 5525 5519 5512 5505 5500 5496 5492 5489 5487
5669 5665 5662 5657 5653 5650 5646 5643 5639 5635 5631 5627 5623 5619 5614 5610 5607 5603 5598 5594 5590 5586 5582 5579 5575 5570 5564 5559 5553 5547 5541 5533 5526 5519 5511 5503 5495 5489 5484 5479 5475 5472 5468
5661 5656 5652 5649 5645 5642 5638 5634 5630 5626 5622 5618 5614 5610 5605 5601 5596 5592 5588 5583 5579 5576 5572 5568 5563 5559 5554 5548 5542 5536 5529 5521 5513 5505 5496 5487 5480 5474 5469 5465 5461 5457 5453
5650 5646 5642 5639 5636 5633 5629 5625 5621 5616 5613 5608 5603 5600 5596 5590 5586 5582 5577 5572 5568 5564 5560 5557 5552 5547 5542 5536 5529 5522 5514 5506 5498 5489 5480 5472 5466 5460 5455 5450 5445 5441 5436
5640 5635 5631 5628 5625 5621 5618 5614 5610 5605 5601 5597 5592 5589 5584 5579 5576 5573 5567 5561 5557 5554 5550 5546 5541 5536 5530 5523 5516 5509 5500 5492 5483 5473 5464 5458 5453 5448 5443 5436 5431 5425 5419
5627 5623 5620 5616 5613 5609 5606 5602 5599 5593 5588 5584 5578 5574 5570 5567 5565 5561 5555 5550 5546 5543 5539 5534 5529 5523 5516 5510 5503 5494 5486 5477 5467 5458 5450 5444 5439 5434 5429 5422 5416 5410 5404
5615 5611 5608 5604 5601 5597 5593 5588 5585 5581 5576 5570 5563 5559 5556 5556 5554 5549 5543 5539 5535 5531 5527 5522 5516 5510 5504 5497 5489 5480 5471 5462 5452 5442 5435 5429 5424 5420 5414 5408 5401 5396 5390
5600 5597 5594 5590 5586 5583 5579 5575 5571 5567 5562 5557 5551 5547 5544 5543 5541 5536 5531 5527 5522 5518 5514 5508 5502 5496 5488 5482 5474 5466 5456 5446 5436 5427 5420 5416 5411 5406 5400 5394 5388 5382 5376
5584 5581 5578 5575 5571 5568 5564 5561 5557 5553 5548 5544 5539 5535 5532 5531 5528 5523 5518 5513 5508 5504 5499 5494 5488 5482 5476 5468 5460 5452 5442 5433 5423 5414 5407 5402 5398 5393 5387 5381 5375 5369 5364
5568 5566 5562 5559 5556 5552 5549 5546 5542 5538 5534 5530 5526 5522 5519 5516 5512 5508 5504 5499 5494 5489 5484 5480 5474 5468 5461 5454 5446 5438 5428 5418 5408 5400 5394 5389 5384 5380 5374 5369 5363 5357 5353
5553 5551 5548 5545 5542 5538 5535 5530 5526 5524 5520 5516 5512 5508 5504 5501 5497 5493 5490 5484 5480 5475 5469 5465 5459 5453 5446 5440 5432 5423 5413 5404 5394 5386 5381 5376 5371 5367 5362 5357 5351 5346 5342
5537 5534 5533 5530 5526 5523 5519 5515 5511 5507 5504 5501 5497 5493 5489 5486 5482 5479 5474 5469 5464 5458 5454 5449 5444 5439 5432 5425 5418 5409 5400 5390 5380 5373 5369 5364 5359 5356 5351 5346 5341 5337 5333
5522 5520 5517 5514 5511 5507 5503 5499 5495 5491 5488 5485 5482 5479 5474 5470 5467 5463 5459 5454 5449 5443 5438 5434 5430 5425 5418 5410 5403 5394 5385 5376 5367 5361 5357 5352 5348 5344 5340 5336 5332 5328 5324
5506 5503 5500 5497 5494 5491 5488 5484 5480 5476 5473 5468 5465 5463 5459 5455 5451 5447 5443 5439 5433 5429 5425 5421 5416 5410 5403 5396 5388 5380 5371 5362 5355 5350 5345 5342 5337 5333 5330 5326 5323 5319 5316
5487 5485 5482 5480 5477 5474 5471 5467 5463 5459 5456 5452 5448 5445 5443 5439 5436 5431 5427 5423 5419 5415 5411 5406 5402 5396 5389 5381 5374 5365 5357 5349 5344 5339 5334 5330 5327 5323 5320 5317 5314 5310 5308
Wind_Speed
8 8 6 10 13 18 24 28 33 35 38 39 42 44 25 16 14 12 16 24 34 38 38 38 40 45 54 61 59 59 60 64 66 68 70 72 74 76 78 80 80 80 80
7 8 7 9 14 18 23 25 27 29 30 34 34 35 37 37 20 11 11 14 19 24 29 33 34 38 45 50 53 57 60 63 67 70 75 79 80 82 84 86 88 88 87
6 8 9 12 15 19 22 24 26 27 28 27 26 26 27 27 27 27 23 11 7 14 17 20 24 27 30 33 36 43 49 55 59 63 66 69 72 76 80 84 85 88 90
6 8 11 14 17 20 22 25 27 28 28 27 25 24 22 20 20 19 19 18 17 15 12 9 9 7 6 7 7 10 14 18 21 24 27 30 34 40 45 58 72 76 76
9 11 14 17 19 22 25 27 29 29 29 28 26 24 23 21 19 16 14 12 11 10 10 9 8 8 8 9 12 16 19 23 27 30 32 34 36 39 41 41 43 48 56
12 13 15 18 21 24 27 29 30 30 29 27 25 24 22 20 19 17 15 14 14 13 12 12 12 14 15 16 19 22 26 30 33 35 37 38 37 40 40 38 36 37 39
13 14 17 21 25 28 30 32 32 32 31 29 27 24 22 21 20 19 18 17 16 15 15 16 17 18 19 21 24 27 30 33 38 41 42 41 42 41 40 39 41 41 35
14 16 20 24 28 31 32 32 33 32 31 30 29 27 25 23 21 21 21 21 21 22 21 20 21 22 24 26 30 33 35 38 41 44 45 44 44 44 42 36 37 37 36
17 20 24 28 30 32 33 32 32 31 30 30 29 28 26 25 25 25 24 26 27 26 27 28 27 28 29 31 34 38 41 43 46 48 49 49 48 45 45 43 38 35 34
22 25 28 31 32 32 33 31 31 32 32 31 30 28 26 27 27 28 28 28 27 27 28 29 31 34 37 39 41 43 45 47 50 52 53 52 52 52 49 46 45 41 38
27 30 32 33 33 32 33 33 33 34 34 31 29 29 29 30 29 30 31 32 32 30 31 34 37 39 41 43 45 47 49 51 53 56 57 56 55 55 56 54 50 48 48
33 35 35 35 34 34 36 37 37 36 36 34 33 32 32 32 31 34 35 34 33 32 34 36 38 40 42 43 46 49 51 53 55 56 58 60 59 58 56 58 58 56 53
37 38 36 36 36 37 39 39 41 41 40 40 38 38 34 33 35 35 37 38 35 35 37 39 39 41 44 46 48 50 52 54 58 59 61 62 60 57 52 50 51 52 52
38 40 40 40 42 42 42 43 44 43 43 43 42 40 36 38 39 39 40 40 38 38 39 40 41 43 46 48 50 53 55 58 60 62 64 61 56 50 48 49 50 50 50
41 42 43 44 45 46 47 47 47 47 45 44 44 43 42 43 44 42 42 43 40 41 41 41 43 46 49 52 53 56 59 62 64 66 64 57 51 48 50 54 54 55 58
45 46 47 48 48 48 49 50 49 48 47 48 50 50 48 48 48 46 47 45 43 43 43 44 45 48 51 54 56 58 61 64 66 66 59 50 48 50 51 50 53 52 54
48 49 50 52 52 52 52 53 51 50 51 53 55 53 50 49 47 47 48 46 44 45 46 46 48 51 54 56 58 60 62 65 67 63 53 48 48 49 49 51 48 47 48
52 53 53 53 53 54 54 52 49 50 53 55 54 49 46 45 45 46 47 47 46 46 48 49 50 53 57 58 61 63 64 67 67 61 52 48 47 49 50 49 46 47 47
56 56 55 55 55 54 53 52 51 51 52 51 48 45 44 44 45 46 48 49 47 48 49 50 51 54 57 59 62 64 64 66 66 58 51 48 47 48 50 49 46 46 43
54 54 54 54 54 53 51 50 51 49 47 48 45 45 45 46 48 48 48 46 51 48 50 50 51 54 58 60 63 64 64 66 65 57 48 46 47 47 47 45 42 39 39
51 52 52 52 52 51 50 50 50 49 46 48 49 48 49 48 49 49 49 47 50 53 49 52 51 54 56 60 62 62 64 65 63 55 47 45 46 45 44 42 40 38 38
51 52 52 52 56 58 56 54 52 52 51 48 49 52 52 50 49 49 50 50 53 58 47 49 53 54 53 58 59 61 63 64 60 51 45 44 43 42 41 39 37 35 34
52 53 54 53 52 53 53 53 55 51 49 49 49 50 50 49 48 50 50 51 55 56 45 50 52 51 53 55 58 60 63 62 56 48 44 42 40 40 39 36 32 31 31
55 55 55 54 53 53 53 51 51 51 51 52 51 50 50 50 50 49 52 55 56 44 47 47 49 51 52 53 57 60 61 58 51 44 42 40 39 38 36 33 32 30 28
62 61 60 57 53 52 53 52 51 53 54 53 53 50 50 50 50 54 56 59 53 48 42 46 49 50 51 53 57 59 58 53 45 41 39 39 38 36 32 31 29 27 27
59 57 58 57 55 54 53 53 53 53 55 55 53 51 52 54 55 55 57 52 44 40 45 46 48 49 50 54 57 57 53 47 41 40 40 39 36 31 30 28 26 25 25
Wind_Direction
102 95 109 17 17 11 15 16 20 20 19 26 31 32 15 344 329 309 278 270 259 257 258 263 262 261 258 254 256 261 265 268 270 271 272 270 269 268 268 268 269 268 269
75 61 49 17 9 8 6 7 9 12 17 22 24 31 39 39 25 331 300 279 268 264 264 265 266 267 262 256 258 262 264 267 269 271 272 272 271 269 268 266 266 266 266
55 30 15 0 358 356 357 358 359 1 4 7 11 22 29 38 46 49 50 36 311 284 279 275 273 269 264 262 263 265 268 270 269 269 268 270 272 272 272 270 268 265 264
358 355 348 349 352 354 355 355 355 356 357 0 5 8 11 19 27 34 41 45 47 49 51 45 37 21 9 345 322 304 297 294 294 297 293 290 288 289 289 283 276 272 267
348 344 345 352 351 349 348 348 348 348 349 351 355 359 3 6 9 9 10 15 20 20 17 12 2 350 334 320 309 301 298 296 295 297 298 297 295 293 295 301 298 284 274
337 339 343 344 341 340 340 339 340 340 339 340 342 344 347 352 355 357 359 357 354 350 344 336 327 321 318 315 308 303 301 300 299 297 298 299 302 301 299 300 303 299 287
328 328 330 330 331 331 332 333 334 335 335 335 335 337 341 344 344 343 340 336 334 331 328 324 319 315 313 310 308 305 305 304 304 306 307 306 305 306 306 304 301 300 291
309 314 319 321 322 324 326 327 329 331 332 332 333 334 334 334 332 328 323 319 317 317 317 312 308 305 304 304 305 304 301 301 304 305 303 303 302 301 300 301 304 297 287
302 307 310 312 316 319 321 324 327 328 330 330 329 326 324 322 321 319 316 315 316 315 313 309 307 306 305 302 300 302 305 307 305 303 302 301 299 297 297 294 293 293 294
299 303 305 310 312 315 316 319 321 321 322 322 321 318 315 313 313 314 313 310 309 307 305 305 306 307 307 309 309 310 309 307 307 309 306 301 297 294 292 290 287 283 283
297 301 304 308 309 310 310 313 314 314 317 317 315 312 309 305 307 309 308 307 304 302 303 304 306 310 312 312 313 311 310 310 307 308 308 305 301 295 292 290 285 282 280
299 301 304 306 305 306 307 308 308 310 312 311 310 307 304 299 301 304 306 305 300 299 298 302 306 309 310 310 310 310 310 307 307 307 307 305 301 297 292 288 287 285 281
297 298 300 298 299 301 303 304 306 307 306 306 307 306 298 294 298 300 303 302 295 295 298 301 306 307 309 309 308 309 310 309 311 313 311 307 303 299 294 291 289 289 288
295 296 296 297 298 299 300 302 303 304 305 306 306 307 295 293 295 298 300 299 294 295 299 302 305 306 307 311 311 311 313 314 315 314 311 306 301 297 293 294 294 292 293
291 291 293 295 297 299 301 302 302 300 300 301 301 302 295 290 292 296 297 297 291 293 297 302 304 307 309 309 312 314 317 318 317 315 313 306 298 294 296 298 296 292 293
290 290 291 292 293 295 297 299 299 298 298 299 300 299 296 290 292 297 298 295 290 291 296 301 304 307 309 312 315 317 319 319 317 314 310 302 296 296 300 299 298 298 301
286 287 289 290 292 294 297 299 299 298 298 299 298 295 291 288 292 298 297 294 290 291 294 298 302 305 307 311 314 317 319 319 316 313 308 300 299 299 301 303 300 301 300
285 287 287 288 290 292 294 295 294 295 297 299 299 295 287 289 294 299 297 296 292 291 294 299 302 306 308 310 314 317 319 318 316 313 305 301 300 301 304 303 299 300 302
285 286 287 288 290 292 294 293 294 296 298 298 297 292 288 290 294 297 298 296 294 293 294 298 301 305 308 311 315 318 319 318 315 311 305 301 300 301 303 302 300 301 303
284 285 286 287 289 292 293 293 296 297 297 295 292 288 288 291 293 296 297 296 304 294 295 297 300 305 309 311 315 317 318 318 315 310 303 299 300 301 301 301 301 303 305
283 284 284 285 288 289 291 294 296 295 296 294 288 286 287 290 292 295 295 294 300 304 292 297 300 302 307 311 315 316 318 317 313 308 302 300 300 301 300 302 301 305 305
284 285 286 289 290 290 289 290 290 292 291 291 288 286 286 288 291 293 293 295 295 304 293 297 298 301 307 312 313 316 318 316 311 306 301 299 300 299 300 302 303 305 307
281 282 285 287 289 291 293 292 291 290 286 287 287 286 286 288 290 291 292 295 296 298 294 294 300 303 308 311 313 317 318 315 310 305 301 299 299 298 299 301 302 304 304
282 282 285 287 292 292 294 296 295 291 286 287 287 285 286 287 287 288 290 293 299 293 289 298 301 303 308 311 315 317 317 314 308 303 300 297 297 299 297 298 299 301 305
285 284 285 288 289 291 292 292 293 293 289 284 286 284 285 285 286 287 289 294 292 292 301 300 303 305 308 313 316 317 317 313 306 302 299 298 299 298 295 296 296 303 306
277 280 285 286 287 287 289 291 291 290 289 286 286 282 281 283 286 292 293 294 292 296 298 306 306 307 311 316 317 318 316 311 304 301 300 300 299 294 293 294 298 302 297